Regional Weather Roundup
Issued by NWS

Home | Current Version | Previous Version | Graphics & Text | Print | Product List | Glossary On
Versions: 1 2 3 4 5 6 7 8 9 10 11 12 13 14 15 16 17 18 19 20 21 22 23 24 25 26 27
000
ASUS45 KBOU 270107
RWRCO

WEATHER ROUNDUP FOR COLORADO
NATIONAL WEATHER SERVICE DENVER/BOULDER CO
700 PM MDT TUE JUL 26 2016

NOTE: "FAIR" INDICATES FEW OR NO CLOUDS BELOW 12000 FEET WITH NO
SIGNIFICANT WEATHER AND/OR OBSTRUCTIONS TO VISIBILITY.

COZ001>005-013-030-031-270200-
...NORTHWEST COLORADO...

CITY           SKY/WX    TMP DP  RH WIND       PRES   REMARKS
CRAIG          FAIR      74  47  38 SW3       30.24F
HAYDEN         FAIR      73  39  29 NE6       30.28R
MEEKER         FAIR      77  46  33 E6        30.27S
MOUNT WERNER   NOT AVBL
STEAMBOAT SPGS FAIR      73  40  30 E5        30.30S
WALDEN         FAIR      64  37  36 SE15      30.40F
$$

COZ006>008-011-270200-
...WEST CENTRAL VALLEYS...

CITY           SKY/WX    TMP DP  RH WIND       PRES   REMARKS
GRAND JUNCTION FAIR      87  42  20 E15       30.11R
MONTROSE       FAIR      87  41  19 N10       30.17S
EAGLE          SUNNY     81  39  22 E17       30.30S
RIFLE          FAIR      85  43  22 NW9       30.19R
DELTA          FAIR      92  38  14 N16G26    30.12R
NUCLA          FAIR     N/A N/A N/A NW3       30.19F
$$

COZ017>023-064>068-270200-
...SOUTHWEST COLORADO...

CITY           SKY/WX    TMP DP  RH WIND       PRES   REMARKS
DURANGO        CLOUDY    76  44  32 VRB5      30.24R
CORTEZ         FAIR      87  43  21 N13       30.14F
PAGOSA SPRINGS LGT RAIN  69  46  44 NE5       30.36S
TELLURIDE      FAIR      73  34  24 CALM      30.45S
WOLF CREEK PAS LGT RAIN  50  36  57 E10       30.71R
$$

COZ009-010-012-014-032>034-037-058>063-270200-
...CENTRAL COLORADO...

CITY           SKY/WX    TMP DP  RH WIND       PRES   REMARKS
ASPEN          FAIR      71  42  35 SW6       30.37F
BUENA VISTA    FAIR      72  38  29 S14       30.38R
COPPER MTN     LGT RAIN  52  36  54 E20G28    30.73F
BERTHOUD PASS  FAIR      41  28  60 N9        30.77R
COTTONWOOD PAS CLOUDY    68  32  26 SE7       30.54R
GUNNISON       PTSUNNY   73  45  35 SE5       30.36R
KREMMLING      PTSUNNY   70  37  30 SW3       30.40S
LEADVILLE      PTSUNNY   59  31  34 N12G24    30.55F
MONARCH PASS   CLOUDY    52  37  58 NE22      30.80R
SALIDA         CLOUDY    75  40  28 SE3       30.43R
SUNLIGHT       FAIR      61  36  39 MISG      30.64S
WILKERSON PASS CLOUDY    54  34  47 S8        30.68S
$$

COZ069>075-270200-
...SAN LUIS VALLEY/SANGRE DE CRISTO MOUNTAINS...

CITY           SKY/WX    TMP DP  RH WIND       PRES   REMARKS
ALAMOSA        CLOUDY    70  48  45 E3        30.34R
LA VETA PASS   PTSUNNY   61  39  44 CALM      30.56S
SAGUACHE       FAIR      72  43  35 CALM      30.39F
$$

COZ035-036-038>040-270200-
...NORTHERN COLORADO FRONT RANGE...

CITY           SKY/WX    TMP DP  RH WIND       PRES   REMARKS
DENVER INTL AP PTSUNNY   86  43  22 SE3       30.13R
DMNS CITY PARK   N/A     84  37  18 W1        30.13R
AURORA         PTSUNNY   83  40  21 W5        30.15S
FRONT RANGE AP PTSUNNY   88  43  20 S5        30.15R
ERIE MUNI ARPT FAIR      83  38  20 SW7       30.11R
BOULDER MUN AP FAIR      86  36  16 SW9       30.14R
CENTENNIAL     PTSUNNY   84  35  17 SW7       30.17S
BROOMFIELD     PTSUNNY   86  30  13 N12G26    30.18R
LONGMONT       FAIR      87  36  16 SW10      30.11S
$$

COZ041-046-047-076>085-087-088-270200-
...PIKES PEAK/PALMER DIVIDE AND SOUTHERN FOOTHILLS...

CITY           SKY/WX    TMP DP  RH WIND       PRES   REMARKS
COLO. SPRINGS  PTSUNNY   81  45  28 S10       30.23F
A. F. ACADEMY  MOSUNNY   78  42  27 S8        30.24R
SCHRIEVER AFB  NOT AVBL
ELLICOTT       FAIR     N/A N/A N/A W12       30.21S
FALCON         FAIR      79  40  24 S8        30.29S
FORT CARSON    FAIR      80  42  25 SW15      30.19F
LIMON          NOT AVBL
MONUMENT HILL  FAIR      75  43  31 W3        30.30R
TRINIDAD       NOT AVBL
$$

COZ042>045-048>051-090-091-270200-
...NORTHEAST COLORADO...

CITY           SKY/WX    TMP DP  RH WIND       PRES   REMARKS
GREELEY ARPT   FAIR      81  50  34 SE7       30.09S
AKRON          FAIR      80  51  36 CALM      30.12R
BURLINGTON     PTSUNNY   74  55  51 N18       30.12R
WRAY           FAIR      79  50  36 SW10G23   30.01
STERLING       FAIR      84  54  34 S12G22    30.00F
HOLYOKE        FAIR      79  59  50 W6        30.00R
FORT MORGAN    FAIR      77  55  45 E7        30.08F
$$

COZ086-089-092>099-270200-
...SOUTHEAST COLORADO...

CITY           SKY/WX    TMP DP  RH WIND       PRES   REMARKS
PUEBLO         FAIR      86  46  24 NW14      30.09F
LA JUNTA       FAIR      88  61  40 N7        30.01S
LAMAR          FAIR      91  55  29 SE12      29.98R
SPRINGFIELD      N/A     87  59  38 SE17      30.05S
$$




USA.gov is the U.S. government's official web portal to all federal, state and local government web resources and services.